Location: Arcones
(41.1182°N, 3.7238°W)
Time: 05:03:12
(UTC+00:00)

Meteor 2-20 Rocket - Pass Details

Date: 11 December 2025
Orbit: 871 x 1024 km, 82.5° (Epoch: 13 January)

Event Time Altitude Azimuth Distance (km) Brightness Sun altitude
Rises 18:31:54 0° 183° (S) 3,698 7.8 -19.2°
Reaches altitude 10° 18:34:27 10° 183° (S) 2,734 7.0 -19.6°
Maximum altitude 18:40:44 84° 96° (E) 970 4.4 -20.8°
Drops below altitude 10° 18:46:48 10° 9° (N) 2,646 6.6 -21.9°
Enters shadow 18:48:16 - 9° (N) 3,205 7.0 -22.2°
